Simultaneous Nadir Overpasses (SNOs) Predictions

Prediction of SNOs between GOES-17 and TERRA Satellite Orbit:

Table of predicted SNOs for the next 14.0 days since TLE Epoch: 6/17/2023
Index Date Time (GOES-17) GOES-17 Lat,Lon TERRA Lat,Lon Distance(km) Time Diff (sec)
1 06/18/2023 05:02:43 0.00,-104.70 0.03,-104.64 7.48 80
2 06/20/2023 04:46:22 0.00,-104.70 0.84,-100.69 456.10 80
3 06/20/2023 17:06:33 -0.00,-104.73 0.17,-105.59 97.96 80
4 06/22/2023 16:52:52 0.00,-104.73 -0.66,-101.64 351.32 80
5 06/23/2023 05:13:12 -0.00,-104.71 -0.40,-106.58 213.12 80
6 06/25/2023 04:54:11 -0.01,-104.71 0.45,-102.64 236.51 80
7 06/25/2023 17:14:21 0.01,-104.74 0.62,-107.53 317.87 80
8 06/27/2023 17:00:40 0.01,-104.75 -0.26,-103.59 132.08 80
9 06/28/2023 05:21:00 -0.01,-104.73 -0.78,-108.53 431.74 80
10 06/30/2023 05:01:58 -0.01,-104.73 0.06,-104.58 18.02 80
